Showing default

SKYSAT C5, 41772

Orbit data source: Space-Track

SKYSAT C5, 41772 is a payload satellite owned by Terra Bella (US) in SSO that was launched on Fri, 16 Sep 2016 UTC via a VEGA launch vehicle from the French Guiana (FRGUI). Payload-class satellites include a variety of spacecraft equipped with specific instruments for various scientific and technological missions. These include communications satellites like Starlink; space stations such as the ISS; scientific satellites like the Hubble; Earth observation satellites from companies like Planet Labs, Umbra, and HawkEye 360; GPS; miniature CubeSats for education and research; and military/defense satellites.

Loading next visibility...
Identifier
41772, 2016-058C
Orbit
SSO
Country
Flag of USUS
Related business
Manufacturer
SS/Loral (MDA)
Mission
Operational Commercial Imaging
Bus & Motor
SKYSAT-GEN2, Unknown motor
Mass
110 kg wet, 110 kg dry
Launch date (UTC)
2016-09-16 (9 years ago)
Launch vehicle
VEGA
Launch site
French Guiana (FRGUI)
Object type
Payload
Rocket body
Debris
Shape & HBR
Box, 0.6 m
Radar Cross Section
0.888 m², Medium (>0.1 m² and < 1m²)

Expand to show TLE details & history
Last TLE update: 21 hours ago

TLE from 21 hours ago
0 SKYSAT C5
1 41772U 16058C   25242.12483144  .00013695  00000-0  38859-3 0  9993
2 41772  97.0936 289.8097 0007225 112.0325 248.1688 15.36299199499104
Epoch: 2025-08-30T02:59Z
TLE epoch observation values (Epoch: 2025-08-30T02:59:45.436Z)
Latitude
-0.00001°
Longitude
-93.69324°
Altitude
462.025 km
Speed
7.635 km/s
True Right ascension
19h 19m 14s
True Declination
0° 00' 00"
Sunlit
Object was in full shadow at epoch
Visualization orbit readout
Latitude
Unknown
Longitude
Unknown
Altitude
Unknown
Speed
Unknown
Apparent Right ascension
Unknown
Apparent Declination
Unknown
Sunlit
N/A
Visualization observer readout
Local Sidereal Time
15:32:43
Azimuth
Unknown
Elevation
Unknown
Doppler factor
Unknown
Orbital elements
Apogee altitude
458.931 km
Perigee altitude
449.059 km
Semi-major axis
6,832.132 km
Eccentricity
0.00072
Inclination
97.0936°
RAAN
289.8097°
Arg. of periapsis
112.0325°
True anomaly
248.09197°
Mean anomaly
248.1688°
Eccentric anomaly
248.13038°
Mean motion
3.84334 °/min
Orbital period
93.67 mins
BSTAR
0.00038859
Loading maneuver chart data...
Computing Atmospheric mass density...
Loading historical data...
Loading historical data...
Loading historical data...
Loading historical data...
Loading historical data...
Loading historical data...
Loading historical data...

Documentation

Showing up to 5 results
|